一网星座-0719星 (ONEWEB-0719)

导读

ONEWEB-0719是英国主导的OneWeb低轨宽带卫星星座中的卫星,于2023年1月10日发射入轨。OneWeb星座规划建成覆盖全球的低轨卫星通信网络,提供无缝高速宽带服务,一期已完成600余颗卫星部署,实现全球商业化运营。这颗卫星补充完善了星座组网,助力OneWeb实现全球泛在互联服务,推动卫星互联网全球化覆盖,提升偏远地区及移动场景下通信连接能力。

Basic Information
目录编号:
55179
目录名称:
ONEWEB-0719
国际标识:
2023-004AR
轨道中心:
EARTH
卫星名称:
一网星座-0719星
卫星全名:
一网星座-0719星 (ONEWEB-0719)
卫星状态:
在轨 (已飞行1341 天)
发射日期:
2023-01-10 UTC
国别 :
英国 (GB)
星等 :
--
This satellite is enrolled in the Space Conjunction Data Service (SCDS) and the current flight risk assessment level is: No High Risk
Orbit Information
数据来源 国际轨道数据 AOE轨道数据
星历时间 2026-09-12T02:10:49+0800
10小时前
查看轨道信息
2026-09-06T03:00:00+0800
6天前
查看轨道信息
半长轴 7571.845km 7571.841km
偏心率 0.000206 0.00021
轨道倾角 87.921° 87.921°
近地点辐角 100.128° 99.708°
升交点赤经 348.651° 349.832°
平近点角 260.008° 57.397°
近地点 1192.148km 1192.113km
远地点 1195.268km 1195.295km
周期 109.285分钟 109.285分钟
每日圈数 13.176506 13.176516
Detailed Information
平衡模式:
三轴稳定
覆盖范围:
全球
运营商:
一网卫星公司
运营商所在国:
英国
制造商(研发单位):
一网卫星公司
制造商所在国:
英国
使用方式:
暂无
Satellite Introduction
OneWeb卫星网络由648颗重约125公斤的微型卫星组成,运行在1200公里的轨道上。 每颗卫星都能够提供至少每秒8千兆位的吞吐量,以使用其高吞吐量的Ku频段有效载荷为家庭和移动平台提供互联网接入。该卫星仍在工作。
2D Orbit Map
3D Orbit Map
Orbit Altitude Analysis Chart
Orbit Inclination Analysis Chart
Orbit Comprehensive Analysis Chart
View Comprehensive Chart
Miss Distance Evolution Trend with All Objects
Collision Probability Evolution Trend with All Objects